Vorticity
10 8 10 11 12 15 14 22 12 4 23 14 10 3 7 13 1 4 -1 2 16 8 12 10 4 18 27 -1 26 11 52 4 13 12 29 -13 -3 20 -21 -14 23 2 -3 12
9 7 9 12 12 7 19 20 12 4 10 10 6 9 14 -2 12 14 8 11 3 8 16 4 6 1 6 5 6 14 -4 7 -6 -3 14 32 8 -11 14 -12 2 17 6 18
10 9 10 10 14 14 15 26 14 12 8 9 14 12 10 17 9 7 8 6 7 13 12 28 14 -1 5 5 11 13 2 12 23 22 33 35 12 23 27 -24 6 18 6 31
7 10 9 12 11 16 11 23 5 6 3 9 12 8 8 -0 12 7 12 3 3 11 4 -2 3 12 10 9 4 16 8 6 15 11 7 24 9 4 9 10 -13 14 17 16
2 4 9 10 13 14 10 11 15 8 11 1 9 8 12 5 1 11 14 1 8 12 16 3 15 1 6 9 10 10 7 13 -0 2 9 12 19 18 10 10 -12 11 8 4
2 10 5 10 12 10 15 8 6 20 12 8 6 6 10 11 1 6 8 4 3 10 16 22 9 10 6 10 6 7 5 5 8 7 9 9 12 14 17 13 19 1 -4 -8
8 13 9 9 12 10 10 12 13 11 12 15 4 2 9 17 10 2 13 13 14 13 13 12 12 13 14 14 13 13 10 4 6 14 8 12 12 21 10 11 13 22 1 11
11 7 7 10 11 9 11 12 8 13 9 14 17 7 13 17 11 10 15 22 15 12 6 2 2 0 9 4 18 16 4 10 8 2 17 10 11 9 37 -3 14 16 3 4
15 11 10 15 12 10 12 12 13 7 16 -4 11 16 3 17 12 8 9 8 10 -3 14 11 10 13 11 10 10 18 16 13 2 14 10 16 10 20 11 4 5 23 21 8
7 8 8 12 10 9 11 13 12 10 9 14 1 9 16 -4 18 2 5 11 4 2 11 9 11 13 23 8 8 9 6 14 5 8 8 10 17 18 5 -3 30 10 2 2
11 10 13 11 8 10 13 16 14 9 8 30 28 7 10 14 -4 10 11 9 22 9 9 11 10 7 8 16 8 12 3 3 11 7 5 14 19 15 -8 13 16 14 3 6
12 14 9 8 10 13 13 14 8 8 9 3 14 12 6 15 14 -1 5 -2 5 8 7 9 9 7 12 10 16 14 12 1 11 -2 10 10 20 2 9 -5 8 2 2 3
15 19 10 11 9 13 10 7 10 9 9 23 45 11 19 13 19 5 8 12 -4 3 7 6 10 13 10 7 12 0 12 15 5 9 9 9 10 11 10 13 11 9 7 11
10 19 13 10 10 12 6 17 14 13 17 17 55 32 17 16 18 11 5 2 1 10 4 6 6 10 12 6 4 5 -4 3 12 10 3 11 8 7 13 9 13 12 12 9
14 18 12 13 10 14 10 14 18 22 16 -1 15 21 33 15 21 15 8 6 9 -6 8 6 6 7 10 13 18 16 18 11 13 4 10 4 -2 3 11 6 1 3 12 5
7 18 12 12 23 8 9 8 31 25 -11 14 11 -0 31 20 15 18 13 1 10 3 -5 30 7 17 4 15 0 13 12 4 23 0 3 1 -1 8 12 11 7 4 3 4
10 11 10 16 18 12 5 15 28 11 16 7 27 18 34 28 16 18 14 12 12 7 4 8 2 4 6 5 1 7 -1 0 7 8 13 9 4 3 6 9 26 15 3 6
8 10 9 15 18 19 3 12 18 12 11 18 19 12 26 34 14 14 8 7 6 3 1 4 11 -1 12 16 5 26 14 14 9 12 19 5 5 3 9 8 6 8 10 6
8 8 10 14 20 10 12 15 10 25 17 4 -1 -6 7 30 3 21 13 9 7 10 22 -9 11 16 -7 -22 -8 -1 -9 -1 -1 17 19 21 22 19 16 10 7 7 5 10
8 11 10 12 12 13 15 24 22 21 17 13 31 8 8 16 -3 24 9 15 -3 8 17 23 27 4 11 18 26 20 13 11 15 15 8 3 3 11 16 20 16 7 7 3
6 13 8 12 14 36 39 14 12 13 12 12 6 18 24 28 34 26 -28 27 12 15 23 7 14 12 15 13 17 17 21 21 20 13 8 18 16 10 6 11 22 17 11 9
9 12 7 38 34 16 13 11 14 17 -4 11 1 13 9 22 3 1 29 5 11 10 10 9 13 15 21 -0 12 18 20 17 15 16 13 13 19 21 14 8 11 15 13 12
12 13 32 25 11 10 12 7 -11 7 5 7 18 18 25 31 2 22 9 12 11 12 12 9 -1 17 4 22 28 27 25 24 24 26 28 26 25 23 23 21 20 20 19 17
11 19 12 28 10 14 -17 -6 1 2 12 10 23 38 18 21 15 13 7 10 7 10 7 7 10 -11 24 8 12 15 17 15 20 26 28 28 27 24 19 16 14 12 13 24
12 21 10 2 -8 3 -0 3 2 10 13 13 29 24 17 28 -6 12 10 11 13 11 6 7 8 35 16 13 9 8 8 7 6 5 4 5 7 9 16 16 20 26 21 12
16 13 -13 13 5 6 13 7 9 9 17 17 28 11 18 14 11 14 12 6 11 6 5 3 32 23 10 5 4 6 4 2 3 3 3 3 3 5 4 2 1 7 14 22
2 -5 -2 17 15 9 14 19 19 8 6 16 27 17 9 15 16 13 12 7 6 7 14 26 27 16 8 6 1 1 2 1 1 2 3 3 2 4 5 8 10 11 6 2
Height
3046 3038 3030 3024 3018 3014 3008 3003 3002 3001 2997 2997 2993 2993 2992 2991 2988 2986 2983 2983 2984 2981 2980 2979 2977 2979 2979 2981 2981 2980 2980 2987 2993 2997 3000 3007 3011 3013 3017 3023 3025 3025 3024 3021
3045 3038 3033 3025 3019 3012 3009 3006 3006 3003 3000 2998 2996 2996 2993 2993 2991 2989 2988 2986 2987 2986 2984 2983 2982 2982 2983 2984 2984 2985 2988 2989 2994 3000 3003 3004 3007 3010 3015 3020 3022 3022 3022 3021
3044 3038 3031 3025 3019 3013 3010 3007 3007 3005 3002 3002 2999 2997 2995 2994 2994 2993 2992 2990 2989 2989 2988 2985 2986 2986 2987 2987 2987 2988 2990 2992 2992 2994 2995 2998 3003 3008 3013 3017 3021 3019 3018 3018
3043 3038 3032 3026 3020 3016 3011 3005 3004 3005 3004 3005 3002 3000 2998 2996 2994 2994 2994 2994 2991 2990 2990 2990 2989 2989 2989 2989 2990 2990 2991 2993 2994 2994 2996 2998 3002 3006 3010 3013 3017 3018 3018 3017
3041 3035 3030 3026 3021 3017 3014 3008 3006 3004 3003 3004 3003 3001 3000 2998 2997 2994 2994 2994 2992 2991 2990 2991 2992 2991 2991 2991 2991 2992 2993 2995 2996 2996 2998 2999 3001 3005 3008 3012 3014 3016 3017 3017
3039 3034 3029 3026 3021 3017 3011 3006 3005 3002 3002 3002 3004 3002 3000 2999 2997 2995 2995 2994 2994 2992 2991 2991 2991 2991 2992 2992 2993 2993 2994 2995 2997 2999 2999 3000 3003 3003 3005 3008 3010 3014 3015 3017
3038 3034 3030 3025 3021 3016 3012 3008 3003 3001 3001 3000 3002 3001 3000 2998 2997 2996 2994 2993 2993 2994 2992 2992 2992 2992 2992 2991 2992 2994 2995 2996 2997 2998 2998 3002 3002 3002 3004 3006 3008 3011 3013 3014
3037 3033 3029 3024 3019 3016 3013 3009 3006 3003 3000 2999 2999 3000 2998 2997 2997 2996 2995 2993 2994 2994 2994 2993 2993 2993 2994 2993 2992 2993 2995 2997 2998 2999 2999 3002 3002 3003 3003 3005 3008 3009 3011 3012
3036 3032 3027 3023 3018 3014 3011 3008 3004 3002 3001 2998 2998 2997 2997 2996 2996 2996 2995 2995 2995 2996 2996 2995 2995 2995 2995 2994 2994 2994 2995 2996 2999 3000 3000 3001 3003 3003 3004 3005 3007 3007 3009 3009
3032 3029 3025 3020 3017 3014 3010 3008 3003 2998 2998 2997 2995 2995 2995 2995 2995 2996 2996 2996 2996 2997 2997 2997 2996 2996 2996 2997 2996 2996 2995 2996 2997 2999 2999 3000 3001 3002 3004 3006 3010 3007 3008 3010
3030 3026 3022 3016 3013 3009 3007 3005 3001 2997 2993 2993 2992 2992 2992 2993 2994 2994 2996 2997 2996 2997 2997 2997 2997 2996 2996 2996 2996 2996 2997 2997 2998 2998 2999 3001 3001 3003 3005 3005 3005 3007 3008 3008
3027 3022 3018 3014 3011 3008 3003 3001 2999 2996 2991 2991 2988 2988 2987 2989 2991 2992 2993 2995 2995 2996 2997 2997 2997 2997 2996 2997 2996 2996 2998 2998 2999 3000 3000 3000 3000 3001 3004 3005 3006 3006 3007 3007
3023 3018 3015 3012 3008 3003 3000 2998 2994 2990 2985 2983 2982 2981 2982 2984 2985 2988 2991 2993 2995 2995 2996 2997 2997 2997 2996 2996 2996 2996 2996 2997 2997 2999 2998 2999 3000 3001 3002 3003 3004 3004 3005 3005
3017 3014 3010 3007 3004 3001 2996 2993 2988 2984 2980 2974 2976 2975 2977 2976 2979 2982 2987 2990 2992 2994 2995 2995 2995 2996 2995 2995 2995 2995 2996 2996 2996 2997 2997 2998 2998 2999 3000 3001 3001 3002 3003 3003
3013 3011 3008 3004 2998 2993 2992 2991 2987 2981 2980 2972 2968 2970 2969 2970 2973 2978 2983 2986 2989 2991 2992 2993 2994 2994 2994 2992 2991 2991 2993 2994 2995 2996 2995 2995 2995 2997 2997 2998 2999 3000 3001 3001
3011 3008 3004 3000 2996 2990 2988 2985 2983 2979 2977 2970 2965 2965 2963 2963 2968 2973 2978 2983 2986 2988 2989 2990 2991 2992 2993 2991 2990 2990 2990 2991 2991 2990 2992 2993 2993 2992 2994 2994 2995 2996 2997 2998
3010 3005 3001 2996 2992 2989 2986 2985 2981 2978 2976 2971 2964 2961 2960 2962 2965 2970 2975 2979 2983 2985 2987 2987 2988 2989 2989 2987 2986 2989 2988 2987 2988 2988 2988 2988 2989 2989 2989 2989 2990 2991 2992 2993
3006 3001 2997 2994 2990 2984 2981 2976 2975 2975 2974 2971 2966 2962 2962 2963 2966 2969 2974 2977 2981 2982 2983 2984 2985 2985 2984 2981 2982 2982 2982 2982 2982 2982 2983 2982 2983 2983 2983 2984 2985 2986 2987 2988
3003 2998 2995 2992 2988 2985 2983 2975 2971 2971 2974 2971 2966 2963 2961 2964 2965 2969 2973 2976 2977 2979 2978 2981 2982 2979 2977 2976 2976 2977 2978 2978 2978 2976 2976 2975 2975 2975 2976 2978 2979 2980 2981 2982
3001 2996 2992 2987 2983 2979 2981 2975 2972 2970 2969 2967 2964 2965 2962 2965 2965 2967 2972 2973 2975 2975 2976 2977 2974 2970 2973 2971 2971 2971 2970 2970 2971 2971 2971 2971 2971 2970 2970 2971 2972 2974 2975 2976
2998 2992 2988 2985 2981 2976 2974 2976 2974 2971 2969 2966 2964 2963 2963 2964 2963 2965 2968 2969 2971 2971 2974 2973 2969 2965 2966 2966 2966 2965 2964 2964 2964 2965 2965 2965 2965 2965 2965 2965 2965 2966 2968 2969
2995 2992 2986 2979 2978 2977 2975 2976 2976 2973 2970 2968 2965 2964 2962 2963 2963 2964 2965 2967 2968 2969 2969 2969 2964 2963 2962 2963 2962 2961 2960 2959 2959 2959 2959 2959 2958 2958 2959 2959 2959 2960 2960 2961
2990 2988 2984 2982 2977 2980 2978 2978 2978 2976 2972 2969 2965 2962 2962 2961 2962 2962 2963 2964 2965 2966 2965 2963 2961 2960 2960 2959 2958 2957 2957 2957 2956 2956 2955 2954 2954 2954 2954 2954 2954 2954 2954 2954
2988 2987 2982 2986 2981 2979 2980 2978 2975 2973 2968 2965 2961 2958 2958 2958 2960 2960 2961 2963 2963 2962 2961 2959 2958 2958 2958 2958 2958 2957 2957 2957 2956 2955 2955 2954 2953 2953 2953 2952 2951 2950 2950 2948
2985 2987 2981 2981 2982 2980 2979 2976 2973 2971 2966 2962 2958 2957 2957 2956 2957 2957 2959 2960 2959 2958 2957 2956 2955 2955 2956 2957 2958 2958 2958 2958 2957 2957 2956 2955 2954 2953 2952 2951 2949 2948 2947 2946
2983 2981 2980 2979 2978 2976 2975 2972 2969 2967 2964 2960 2957 2955 2954 2954 2955 2955 2955 2957 2956 2955 2954 2954 2952 2953 2954 2956 2957 2958 2959 2959 2958 2958 2957 2956 2955 2953 2952 2950 2949 2947 2946 2944
2977 2976 2975 2974 2972 2971 2970 2966 2964 2964 2963 2959 2957 2956 2954 2954 2953 2954 2954 2955 2954 2953 2952 2950 2950 2952 2954 2956 2957 2958 2958 2958 2957 2957 2955 2954 2953 2951 2950 2948 2946 2945 2943 2942